Stations météo

réclame
Mon MeteoGroup
Ancona, Italie (16190): Température de l'air & dewpoint: 14.10.2017 11:00:00 - 20.10.2017 11:00:00 (CEST)Ancona, Italie (16190): reduced air pressure: 14.10.2017 11:00:00 - 20.10.2017 11:00:00 (CEST)Ancona, Italie (16190): Quantités de précipitations: 14.10.2017 11:00:00 - 20.10.2017 11:00:00 (CEST)
Date & Time tt [°C] td [°C] ppp [hPa] rr [mm]
20.10.2017 11:00:00 - - - -
20.10.2017 10:00:00 14,4 14,2 1015,9 -
20.10.2017 09:00:00 13,6 13,2 1015,6 -
20.10.2017 08:00:00 13,4 12,9 1014,8 0,0
20.10.2017 07:00:00 13,9 13,4 1014,1 -
20.10.2017 06:00:00 14,0 13,5 1014,0 -
20.10.2017 05:00:00 14,1 13,7 1013,8 -
20.10.2017 04:00:00 14,2 13,8 1013,7 -
20.10.2017 03:00:00 14,3 13,9 1013,8 -
20.10.2017 02:00:00 14,7 14,3 1013,8 0,0
20.10.2017 01:00:00 14,7 14,2 1013,9 -
20.10.2017 00:00:00 15,0 14,3 1013,7 -
19.10.2017 23:00:00 15,1 14,4 1013,8 -
19.10.2017 22:00:00 15,1 14,4 1013,8 -
19.10.2017 21:00:00 15,0 14,3 1013,5 -
19.10.2017 20:00:00 15,1 14,2 1013,4 0,0
19.10.2017 19:00:00 15,5 14,6 1012,9 -
19.10.2017 18:00:00 16,0 14,3 1012,6 -
19.10.2017 17:00:00 16,9 14,5 1012,7 -
19.10.2017 16:00:00 17,8 15,0 1013,2 -
19.10.2017 15:00:00 17,8 16,6 1013,5 -
19.10.2017 14:00:00 16,2 16,1 1013,8 0,0
19.10.2017 13:00:00 15,0 14,9 1014,5 -
19.10.2017 12:00:00 14,5 14,4 1014,4 -
19.10.2017 11:00:00 14,0 13,9 1014,4 -
19.10.2017 10:00:00 13,6 13,5 1014,1 -
19.10.2017 09:00:00 12,8 12,6 1013,9 -
19.10.2017 08:00:00 13,1 12,6 1013,4 0,0
19.10.2017 07:00:00 13,4 12,6 1013,2 -
19.10.2017 06:00:00 13,6 12,6 1013,4 -
19.10.2017 05:00:00 14,1 12,1 1013,4 -
19.10.2017 04:00:00 14,3 12,5 1013,2 -
19.10.2017 03:00:00 14,4 11,9 1013,5 -
19.10.2017 02:00:00 15,8 10,9 1013,4 0,0
19.10.2017 01:00:00 14,5 11,4 1013,5 -
19.10.2017 00:00:00 13,6 12,5 1013,5 -
18.10.2017 23:00:00 14,5 14,1 1013,5 -
18.10.2017 22:00:00 15,4 15,0 1013,4 -
18.10.2017 21:00:00 15,5 15,0 1013,4 -
18.10.2017 20:00:00 15,7 14,7 1013,5 0,0
18.10.2017 19:00:00 16,4 15,5 1013,3 -
18.10.2017 18:00:00 17,1 15,9 1013,2 -
18.10.2017 17:00:00 17,5 16,0 1013,2 -
18.10.2017 16:00:00 18,4 16,3 1013,3 -
18.10.2017 15:00:00 18,5 16,0 1013,7 -
18.10.2017 14:00:00 19,2 16,4 1014,3 0,0
18.10.2017 13:00:00 17,8 15,5 1015,0 -
18.10.2017 12:00:00 16,3 15,1 1015,6 -
18.10.2017 11:00:00 16,1 14,6 1015,7 -
18.10.2017 10:00:00 16,1 15,4 1015,7 -
18.10.2017 09:00:00 15,1 14,6 1015,6 -
18.10.2017 08:00:00 14,7 14,0 1015,2 0,0
18.10.2017 07:00:00 15,2 14,5 1015,4 -
18.10.2017 06:00:00 14,9 13,9 1015,5 -
18.10.2017 05:00:00 15,5 14,5 1015,7 -
18.10.2017 04:00:00 15,5 14,3 1016,1 -
18.10.2017 03:00:00 16,1 14,4 1016,4 -
18.10.2017 02:00:00 15,4 13,2 1016,7 0,0
18.10.2017 01:00:00 15,0 14,1 1017,1 -
18.10.2017 00:00:00 15,6 14,2 1017,4 -
17.10.2017 23:00:00 15,5 14,0 1017,8 -
17.10.2017 22:00:00 15,4 14,2 1017,7 -
17.10.2017 21:00:00 15,8 14,8 1017,9 -
17.10.2017 20:00:00 15,7 14,2 1018,2 0,0
17.10.2017 19:00:00 16,8 15,6 1018,1 -
17.10.2017 18:00:00 17,5 15,8 1018,2 -
17.10.2017 17:00:00 17,8 15,5 1018,4 -
17.10.2017 16:00:00 18,0 15,7 1018,7 -
17.10.2017 15:00:00 18,5 15,3 1019,1 -
17.10.2017 14:00:00 19,1 15,7 1019,9 0,0
17.10.2017 13:00:00 18,8 15,8 1020,7 -
17.10.2017 12:00:00 17,5 14,9 1021,2 -
17.10.2017 11:00:00 17,1 14,5 1021,5 -
17.10.2017 10:00:00 16,5 14,4 1021,4 -
17.10.2017 09:00:00 14,9 13,2 1021,3 -
17.10.2017 08:00:00 14,7 13,4 1021,1 0,0
17.10.2017 07:00:00 14,9 13,5 1020,9 -
17.10.2017 06:00:00 14,7 12,8 1020,7 -
17.10.2017 05:00:00 15,6 13,4 1020,7 -
17.10.2017 04:00:00 16,1 13,3 1020,8 -
17.10.2017 03:00:00 16,6 12,7 1021,1 -
17.10.2017 02:00:00 16,3 13,5 1021,4 0,0
17.10.2017 01:00:00 15,9 14,0 1021,6 -
17.10.2017 00:00:00 15,6 14,7 1021,8 -
16.10.2017 23:00:00 15,7 15,2 1022,1 -
16.10.2017 22:00:00 16,2 15,3 1021,9 -
16.10.2017 21:00:00 16,4 14,7 1022,0 -
16.10.2017 20:00:00 16,8 13,6 1022,1 0,0
16.10.2017 19:00:00 16,7 13,3 1021,8 -
16.10.2017 18:00:00 18,5 14,9 1021,5 -
16.10.2017 17:00:00 19,5 15,5 1021,7 -
16.10.2017 16:00:00 20,0 14,9 1021,9 -
16.10.2017 15:00:00 20,4 16,0 1022,2 -
16.10.2017 14:00:00 19,3 15,5 1022,6 0,0
16.10.2017 13:00:00 19,1 14,5 1023,1 -
16.10.2017 12:00:00 18,8 13,6 1023,4 -
16.10.2017 11:00:00 18,5 13,1 1023,5 -
16.10.2017 10:00:00 18,2 12,8 1023,3 -
16.10.2017 09:00:00 16,3 12,0 1022,9 -
16.10.2017 08:00:00 15,4 11,2 1022,4 0,0
16.10.2017 07:00:00 15,5 11,2 1022,3 -
16.10.2017 06:00:00 15,4 11,4 1022,0 -
16.10.2017 05:00:00 15,9 11,8 1022,2 -
16.10.2017 04:00:00 16,9 12,2 1022,1 -
16.10.2017 03:00:00 16,8 11,3 1022,4 -
16.10.2017 02:00:00 16,7 11,4 1022,6 0,0
16.10.2017 01:00:00 16,2 11,9 1022,8 -
16.10.2017 00:00:00 16,7 12,6 1023,1 -
15.10.2017 23:00:00 16,9 13,2 1023,0 -
15.10.2017 22:00:00 16,8 13,6 1022,6 -
15.10.2017 21:00:00 16,4 14,5 1022,3 -
15.10.2017 20:00:00 16,5 14,8 1022,3 0,0
15.10.2017 19:00:00 17,4 15,3 1022,0 -
15.10.2017 18:00:00 18,4 15,2 1021,9 -
15.10.2017 17:00:00 19,2 15,4 1022,2 -
15.10.2017 16:00:00 19,0 15,8 1022,6 -
15.10.2017 15:00:00 18,8 16,5 1023,0 -
15.10.2017 14:00:00 18,3 16,6 1023,7 0,0
15.10.2017 13:00:00 18,1 16,2 1024,1 -
15.10.2017 12:00:00 17,5 15,6 1024,5 -
15.10.2017 11:00:00 16,7 14,6 1024,6 -
15.10.2017 10:00:00 15,9 14,0 1024,1 -
15.10.2017 09:00:00 15,0 13,5 1023,8 -
15.10.2017 08:00:00 14,1 12,8 1023,4 0,0
15.10.2017 07:00:00 14,2 13,0 1023,2 -
15.10.2017 06:00:00 14,3 13,3 1023,2 -
15.10.2017 05:00:00 14,2 13,2 1022,9 -
15.10.2017 04:00:00 14,3 13,0 1023,0 -
15.10.2017 03:00:00 14,9 13,2 1023,3 -
15.10.2017 02:00:00 15,2 13,5 1023,4 0,0
15.10.2017 01:00:00 15,6 14,1 1023,3 -
15.10.2017 00:00:00 15,6 14,2 1023,4 -
14.10.2017 23:00:00 15,1 14,4 1023,3 -
14.10.2017 22:00:00 15,3 14,4 1023,2 -
14.10.2017 21:00:00 15,8 14,8 1023,2 -
14.10.2017 20:00:00 16,3 14,9 1023,0 0,0
14.10.2017 19:00:00 16,6 14,7 1022,5 -
14.10.2017 18:00:00 17,8 15,2 1022,3 -
14.10.2017 17:00:00 18,5 15,5 1022,3 -
14.10.2017 16:00:00 19,0 16,2 1022,3 -
14.10.2017 15:00:00 19,7 16,5 1022,5 -
14.10.2017 14:00:00 19,3 17,0 1022,8 0,0
14.10.2017 13:00:00 18,6 16,5 1023,3 -
14.10.2017 12:00:00 17,9 15,6 1023,4 -
14.10.2017 11:00:00 17,7 15,4 1023,3 -

tt = Température de l'air
td = dewpoint
ppp = reduced air pressure
rr = Quantités de précipitations

stations d'obs. à proximité